Вернуться в каталог

XSS 10

АктивенВоенныеLEO
NORAD 27664·PAYLOAD·🇺🇸 United States

Запущен Jan 29, 2003 с Cape Canaveral Space Force Station

Loading…

Ближайшие Пролёты (ближайшие 24 часа)

TLE

СвежийSource: Space-Track

Эпоха: Sep 14, 2026, 13:56 UTC

1 27664U 03005B   26257.58065489  .00001156  00000-0  10794-3 0  9997
2 27664  39.7467 306.0939 0146441   9.4734 350.8764 14.90640063275976

Отслеживайте XSS 10 в реальном времени с AllMySat

Download on the App Store